{"data":{"norad_id":67462,"intl_designator":"2026-008T","name":"STARLINK-36504","alt_names":[],"object_type":"PAYLOAD","status":"ACTIVE","operator":null,"country":"US","launch_date":"2026-01-14","launch_site_code":"AFETR","launch_vehicle":null,"mission":null,"orbit_class":"UNKNOWN","rcs_meters":null,"size_class":null,"mass_kg":null,"dimensions":null,"purposes":["comms"],"wikipedia_slug":null,"has_3d_model":false,"image_url":null,"decayed_at":null,"tle_current":{"epoch":"2026-09-19T12:01:22.092096Z","epoch_age_seconds":158571,"freshness":"FRESH","line1":"1 67462U 26008T   26262.50095014  .00014365  00000+0  53050-3 0  9997","line2":"2 67462  42.9964 190.6278 0000351 302.6072  57.4745 15.27581143 39217","mean_motion":15.27581143,"eccentricity":3.51e-5,"inclination_deg":42.9964,"raan_deg":190.6278,"arg_perigee_deg":302.6072,"mean_anomaly_deg":57.4745,"bstar":0.0005305,"rev_number":3921,"period_min":94.266678179334,"perigee_km":482.80484597676,"apogee_km":483.28650100044,"semimajor_km":6861.1826734886,"source":"CELESTRAK","updated_at":"2026-09-20T09:00:43.551324Z"}}}